This is the latest recevied weather packets stored in our database for station/object TB1YZC-13. If no packets are shown the sender has not sent any weather packets the latest 10 day(s).
| Time | Temp. | Humidity | Pressure | Rain* | Wind** | Luminosity | Snow |
|---|---|---|---|---|---|---|---|
| 1788657035 | 19.44° C | 76% | 1017.9 hPa | - | - | - | - |
| 1788656433 | 19.44° C | 77% | 1017.7 hPa | - | - | - | - |
| 1788655829 | 19.44° C | 77% | 1017.8 hPa | - | - | - | - |
| 1788655226 | 19.44° C | 77% | 1017.7 hPa | - | - | - | - |
| 1788654623 | 19.44° C | 75% | 1017.9 hPa | - | - | - | - |
| 1788654020 | 20.56° C | 74% | 1017.9 hPa | - | - | - | - |
| 1788653417 | 20.56° C | 73% | 1017.9 hPa | - | - | - | - |
| 1788652814 | 20° C | 74% | 1017.8 hPa | - | - | - | - |
| 1788652210 | 20° C | 74% | 1017.8 hPa | - | - | - | - |
| 1788651607 | 20.56° C | 75% | 1017.7 hPa | - | - | - | - |
| 1788651040 | 20.56° C | 75% | 1017.8 hPa | - | - | - | - |
| 1788650401 | 20.56° C | 75% | 1017.7 hPa | - | - | - | - |
| 1788649797 | 20.56° C | 75% | 1017.7 hPa | - | - | - | - |
| 1788649194 | 21.11° C | 74% | 1017.7 hPa | - | - | - | - |
| 1788648591 | 21.11° C | 73% | 1017.7 hPa | - | - | - | - |
| 1788647988 | 21.67° C | 73% | 1017.7 hPa | - | - | - | - |
| 1788647385 | 21.11° C | 75% | 1017.9 hPa | - | - | - | - |
| 1788646782 | 21.11° C | 75% | 1017.9 hPa | - | - | - | - |
| 1788646179 | 21.11° C | 75% | 1017.9 hPa | - | - | - | - |
| 1788645576 | 21.11° C | 74% | 1017.9 hPa | - | - | - | - |
| 1788644972 | 20.56° C | 74% | 1018 hPa | - | - | - | - |
| 1788644369 | 21.11° C | 73% | 1018.1 hPa | - | - | - | - |
| 1788643766 | 21.11° C | 72% | 1018 hPa | - | - | - | - |
| 1788643162 | 21.11° C | 72% | 1018.2 hPa | - | - | - | - |
| 1788642559 | 21.11° C | 70% | 1018.2 hPa | - | - | - | - |
* Rain since midnight (hover to see other rain measurements)
** Current wind speed in m/s (hover to see current wind gust speed)